QFA1VZ YSSY-YMML

Flight info

Callsign QFA1VZ
Flight time 1h 22m
Altitude 40000
Route WOL H65 LEECE Q29 ML
Aircraft A332/H-SDE3GHIJ2J3J5M1RVWXY/LB2D1

Departure

Time 2026-05-04 10:02
Airport Sydney Kingsford Smith International Airport (YSSY)

Arrival

Time 2026-05-04 11:24
Airport Melbourne Airport (YMML)
Time Latitude Longitude Altitude Speed Heading
2026-05-04 09:22 -33.93830 151.16842 25 ft 0 kts 70°
2026-05-04 09:43 -33.93837 151.16824 30 ft 3 kts 86°
2026-05-04 09:43 -33.93836 151.16801 30 ft 3 kts 119°
2026-05-04 09:44 -33.93825 151.16785 26 ft 0 kts 165°
2026-05-04 09:46 -33.93883 151.16777 27 ft 6 kts 187°
2026-05-04 09:46 -33.93931 151.16777 28 ft 7 kts 170°
2026-05-04 09:46 -33.94007 151.16798 27 ft 7 kts 166°
2026-05-04 09:47 -33.94050 151.16811 28 ft 0 kts 169°
2026-05-04 09:49 -33.94104 151.16677 28 ft 2 kts 253°
2026-05-04 09:49 -33.94111 151.16644 29 ft 6 kts 256°
2026-05-04 09:49 -33.94124 151.16583 28 ft 8 kts 256°
2026-05-04 09:51 -33.94175 151.16753 27 ft 0 kts 74°
2026-05-04 09:51 -33.94175 151.16754 27 ft 0 kts 74°
2026-05-04 09:51 -33.94175 151.16755 27 ft 2 kts 74°
2026-05-04 09:52 -33.94140 151.16905 31 ft 31 kts 74°
2026-05-04 09:52 -33.94080 151.17153 27 ft 25 kts 75°
2026-05-04 09:52 -33.94076 151.17191 25 ft 5 kts 90°
2026-05-04 09:52 -33.94080 151.17209 26 ft 0 kts 113°
2026-05-04 09:53 -33.94081 151.17212 26 ft 5 kts 114°
2026-05-04 09:53 -33.94186 151.17280 28 ft 25 kts 169°
2026-05-04 09:53 -33.94358 151.17324 29 ft 25 kts 167°
2026-05-04 09:53 -33.94532 151.17371 30 ft 26 kts 167°
2026-05-04 09:54 -33.94714 151.17420 29 ft 28 kts 169°
2026-05-04 09:54 -33.94907 151.17467 26 ft 29 kts 167°
2026-05-04 09:54 -33.95110 151.17519 26 ft 31 kts 168°
2026-05-04 09:54 -33.95323 151.17572 23 ft 32 kts 168°
2026-05-04 09:55 -33.95539 151.17631 28 ft 32 kts 166°
2026-05-04 09:55 -33.95754 151.17690 28 ft 32 kts 168°
2026-05-04 09:55 -33.95974 151.17742 27 ft 32 kts 167°
2026-05-04 09:55 -33.96195 151.17802 27 ft 33 kts 169°
2026-05-04 09:56 -33.96389 151.17857 27 ft 16 kts 153°
2026-05-04 09:56 -33.96431 151.17917 28 ft 0 kts 109°
2026-05-04 09:58 -33.96432 151.17917 28 ft 1 kts 109°
2026-05-04 09:58 -33.96432 151.17920 28 ft 0 kts 109°
2026-05-04 10:00 -33.96352 151.18044 28 ft 11 kts 356°
2026-05-04 10:00 -33.96290 151.18032 27 ft 0 kts 349°
2026-05-04 10:02 -33.91549 151.19435 1916 ft 147 kts
2026-05-04 10:04 -33.86206 151.13275 4166 ft 221 kts 322°
2026-05-04 10:04 -33.84991 151.12092 4665 ft 234 kts 322°
2026-05-04 10:04 -33.83683 151.10835 5339 ft 244 kts 324°
2026-05-04 10:04 -33.82148 151.09962 6326 ft 248 kts 347°
2026-05-04 10:05 -33.80409 151.10146 7305 ft 259 kts 17°
2026-05-04 10:05 -33.79358 151.10885 7943 ft 271 kts 36°
2026-05-04 10:05 -33.78113 151.12668 8850 ft 285 kts 51°
2026-05-04 10:05 -33.76671 151.15345 9728 ft 291 kts 54°
2026-05-04 10:06 -33.75588 151.17416 9968 ft 293 kts 54°
2026-05-04 10:06 -33.74866 151.18792 9996 ft 293 kts 53°
2026-05-04 10:06 -33.73765 151.20881 10105 ft 296 kts 54°
2026-05-04 10:08 -33.66326 151.34962 13811 ft 356 kts 64°
2026-05-04 10:08 -33.65811 151.37919 14542 ft 371 kts 89°
2026-05-04 10:08 -33.66313 151.40992 15182 ft 384 kts 112°
2026-05-04 10:08 -33.67813 151.43684 15837 ft 393 kts 137°
2026-05-04 10:09 -33.70087 151.45487 16492 ft 394 kts 163°
2026-05-04 10:09 -33.72768 151.46095 17079 ft 393 kts 185°
2026-05-04 10:09 -33.75465 151.45838 17640 ft 395 kts 197°
2026-05-04 10:09 -33.78062 151.44843 18299 ft 390 kts 213°
2026-05-04 10:10 -33.80453 151.43294 18805 ft 390 kts 220°
2026-05-04 10:10 -33.82708 151.41483 19372 ft 389 kts 225°
2026-05-04 10:10 -33.84901 151.39554 19961 ft 389 kts 226°
2026-05-04 10:10 -33.87072 151.37597 20534 ft 390 kts 229°
2026-05-04 10:11 -33.89199 151.35626 21040 ft 392 kts 229°
2026-05-04 10:11 -33.91368 151.33612 21549 ft 394 kts 229°
2026-05-04 10:11 -33.93564 151.31616 22077 ft 396 kts 228°
2026-05-04 10:11 -33.95798 151.29642 22555 ft 399 kts 227°
2026-05-04 10:12 -33.98068 151.27677 23027 ft 402 kts 227°
2026-05-04 10:12 -34.00307 151.25722 23449 ft 404 kts 226°
2026-05-04 10:12 -34.02629 151.23767 23891 ft 407 kts 224°
2026-05-04 10:12 -34.05014 151.21877 24341 ft 410 kts 221°
2026-05-04 10:13 -34.07450 151.20019 24780 ft 413 kts 222°
2026-05-04 10:13 -34.09872 151.18133 25204 ft 415 kts 222°
2026-05-04 10:13 -34.12262 151.16225 25628 ft 418 kts 220°
2026-05-04 10:13 -34.14712 151.14269 26014 ft 421 kts 221°
2026-05-04 10:14 -34.17158 151.12295 26429 ft 423 kts 221°
2026-05-04 10:14 -34.19572 151.10307 26839 ft 425 kts 222°
2026-05-04 10:16 -34.36237 150.96048 28207 ft 407 kts 224°
2026-05-04 10:16 -34.38562 150.94023 28371 ft 416 kts 224°
2026-05-04 10:16 -34.40908 150.91971 28522 ft 425 kts 225°
2026-05-04 10:16 -34.43157 150.89979 28662 ft 432 kts 225°
2026-05-04 10:17 -34.45601 150.87808 28885 ft 438 kts 225°
2026-05-04 10:17 -34.48079 150.85618 29220 ft 442 kts 225°
2026-05-04 10:19 -34.62896 150.67347 31797 ft 431 kts 243°
2026-05-04 10:19 -34.64657 150.64400 32122 ft 432 kts 243°
2026-05-04 10:19 -34.66416 150.61449 32555 ft 430 kts 242°
2026-05-04 10:19 -34.68182 150.58515 33095 ft 427 kts 242°
2026-05-04 10:20 -34.69901 150.55651 33578 ft 423 kts 243°
2026-05-04 10:20 -34.71619 150.52747 34043 ft 420 kts 243°
2026-05-04 10:20 -34.73335 150.49870 34435 ft 418 kts 242°
2026-05-04 10:20 -34.75064 150.47004 34771 ft 418 kts 242°
2026-05-04 10:21 -34.76766 150.44190 35072 ft 418 kts 242°
2026-05-04 10:21 -34.78489 150.41333 35325 ft 418 kts 242°
2026-05-04 10:21 -34.80214 150.38464 35601 ft 418 kts 243°
2026-05-04 10:21 -34.81909 150.35627 35904 ft 418 kts 244°
2026-05-04 10:22 -34.85284 150.29875 36482 ft 416 kts 244°
2026-05-04 10:22 -34.86963 150.27007 36767 ft 416 kts 244°
2026-05-04 10:22 -34.88650 150.24133 36997 ft 416 kts 243°
2026-05-04 10:23 -34.90342 150.21265 37210 ft 417 kts 243°
2026-05-04 10:23 -34.92033 150.18426 37535 ft 416 kts 242°
2026-05-04 10:25 -35.03966 149.98498 39211 ft 416 kts 242°
2026-05-04 10:25 -35.05637 149.95673 39409 ft 415 kts 242°
2026-05-04 10:25 -35.07334 149.92799 39578 ft 416 kts 242°
2026-05-04 10:25 -35.09025 149.89930 39761 ft 416 kts 242°
2026-05-04 10:26 -35.10716 149.87058 39944 ft 416 kts 242°
2026-05-04 10:26 -35.12385 149.84219 40075 ft 418 kts 242°
2026-05-04 10:26 -35.14093 149.81308 40074 ft 423 kts 242°
2026-05-04 10:27 -35.17550 149.75412 40068 ft 428 kts 242°
2026-05-04 10:27 -35.21009 149.69525 40075 ft 427 kts 242°
2026-05-04 10:28 -35.24478 149.63609 40068 ft 427 kts 242°
2026-05-04 10:28 -35.27945 149.57679 40091 ft 427 kts 242°
2026-05-04 10:29 -35.31379 149.51779 40084 ft 428 kts 242°
2026-05-04 10:29 -35.34816 149.45815 40088 ft 428 kts 242°
2026-05-04 10:30 -35.38254 149.39902 40091 ft 428 kts 243°
2026-05-04 10:30 -35.41716 149.33957 40121 ft 428 kts 243°
2026-05-04 10:31 -35.45155 149.27995 40097 ft 428 kts 242°
2026-05-04 10:32 -35.57195 149.07157 40099 ft 428 kts 243°
2026-05-04 10:33 -35.60612 149.01153 40079 ft 428 kts 243°
2026-05-04 10:33 -35.64028 148.95201 40091 ft 429 kts 243°
2026-05-04 10:34 -35.67494 148.89221 40084 ft 429 kts 242°
2026-05-04 10:34 -35.70952 148.83233 40110 ft 429 kts 242°
2026-05-04 10:35 -35.74377 148.77256 40087 ft 429 kts 242°
2026-05-04 10:35 -35.77799 148.71228 40078 ft 428 kts 243°
2026-05-04 10:36 -35.81202 148.65183 40088 ft 428 kts 242°
2026-05-04 10:36 -35.84611 148.59218 40079 ft 428 kts 242°
2026-05-04 10:37 -35.88054 148.53190 40085 ft 428 kts 243°
2026-05-04 10:37 -35.91471 148.47155 40073 ft 428 kts 242°
2026-05-04 10:39 -36.03361 148.25980 40080 ft 429 kts 242°
2026-05-04 10:40 -36.06765 148.19900 40085 ft 430 kts 242°
2026-05-04 10:40 -36.10171 148.13805 40086 ft 432 kts 242°
2026-05-04 10:41 -36.13577 148.07702 40082 ft 433 kts 242°
2026-05-04 10:41 -36.17004 148.01573 40080 ft 433 kts 242°
2026-05-04 10:42 -36.20425 147.95422 40083 ft 432 kts 242°
2026-05-04 10:42 -36.23821 147.89308 40080 ft 432 kts 242°
2026-05-04 10:43 -36.27225 147.83179 40099 ft 432 kts 242°
2026-05-04 10:45 -36.40889 147.58513 40077 ft 436 kts 239°
2026-05-04 10:45 -36.43084 147.55832 40061 ft 451 kts 223°
2026-05-04 10:45 -36.45839 147.53949 40059 ft 466 kts 208°
2026-05-04 10:45 -36.49024 147.52916 40061 ft 479 kts 197°
2026-05-04 10:46 -36.52364 147.52418 40059 ft 483 kts 193°
2026-05-04 10:46 -36.59077 147.51669 40067 ft 484 kts 193°
2026-05-04 10:47 -36.65761 147.50941 40047 ft 485 kts 193°
2026-05-04 10:47 -36.72515 147.50201 40042 ft 485 kts 193°
2026-05-04 10:49 -36.99496 147.47234 40049 ft 489 kts 193°
2026-05-04 10:50 -37.06318 147.46499 40011 ft 494 kts 193°
2026-05-04 10:52 -37.33715 147.43207 39980 ft 491 kts 198°
2026-05-04 10:52 -37.40076 147.40646 39973 ft 470 kts 216°
2026-05-04 10:54 -37.50132 147.19986 39955 ft 413 kts 277°
2026-05-04 10:54 -37.49895 147.16411 39955 ft 408 kts 284°
2026-05-04 10:56 -37.40378 146.94903 39962 ft 406 kts 304°
2026-05-04 10:56 -37.38792 146.91965 39956 ft 406 kts 304°
2026-05-04 10:57 -37.35621 146.86133 39985 ft 406 kts 304°
2026-05-04 10:57 -37.32448 146.80235 39999 ft 408 kts 304°
2026-05-04 10:58 -37.29246 146.74359 39980 ft 410 kts 305°
2026-05-04 10:58 -37.26014 146.68439 39994 ft 410 kts 304°
2026-05-04 10:59 -37.22812 146.62503 39996 ft 410 kts 303°
2026-05-04 10:59 -37.19647 146.56577 40012 ft 410 kts 304°
2026-05-04 11:00 -37.16437 146.50644 40017 ft 410 kts 304°
2026-05-04 11:01 -37.12372 146.27084 38770 ft 415 kts 256°
2026-05-04 11:02 -37.13521 146.23760 37813 ft 418 kts 248°
2026-05-04 11:02 -37.14995 146.20659 36857 ft 419 kts 245°
2026-05-04 11:05 -37.36149 145.80629 24152 ft 342 kts 244°
2026-05-04 11:06 -37.37431 145.78136 23417 ft 338 kts 244°
2026-05-04 11:06 -37.38705 145.75665 22568 ft 334 kts 242°
2026-05-04 11:06 -37.39960 145.73275 21794 ft 329 kts 242°
2026-05-04 11:06 -37.41222 145.70891 21038 ft 324 kts 241°
2026-05-04 11:08 -37.47619 145.53988 15700 ft 292 kts 256°
2026-05-04 11:10 -37.51897 145.37715 10561 ft 268 kts 255°
2026-05-04 11:12 -37.55929 145.22435 9014 ft 261 kts 255°
2026-05-04 11:12 -37.56504 145.20283 9014 ft 261 kts 255°
2026-05-04 11:12 -37.57081 145.18108 9013 ft 261 kts 255°
2026-05-04 11:12 -37.57657 145.15932 8955 ft 261 kts 255°
2026-05-04 11:13 -37.58231 145.13747 8528 ft 262 kts 255°
2026-05-04 11:13 -37.58798 145.11575 8166 ft 259 kts 254°
2026-05-04 11:13 -37.59361 145.09453 7793 ft 257 kts 255°
2026-05-04 11:13 -37.59920 145.07319 7404 ft 255 kts 255°
2026-05-04 11:14 -37.60471 145.05190 7041 ft 254 kts 255°
2026-05-04 11:14 -37.61026 145.03090 6686 ft 252 kts 254°
2026-05-04 11:14 -37.61575 145.01001 6357 ft 248 kts 256°
2026-05-04 11:16 -37.69534 144.93225 3041 ft 277 kts 159°
2026-05-04 11:16 -37.71266 144.94353 3019 ft 280 kts 157°
2026-05-04 11:16 -37.72987 144.95498 3013 ft 279 kts 158°
2026-05-04 11:17 -37.74701 144.96627 3013 ft 277 kts 158°
2026-05-04 11:17 -37.76423 144.97733 3009 ft 277 kts 160°
2026-05-04 11:19 -37.82818 144.92008 2564 ft 160 kts 264°
2026-05-04 11:19 -37.82983 144.90613 2511 ft 161 kts 264°
2026-05-04 11:19 -37.83115 144.89203 2505 ft 160 kts 271°
2026-05-04 11:19 -37.82911 144.87905 2504 ft 142 kts 293°
2026-05-04 11:20 -37.82329 144.87003 2519 ft 129 kts 315°
2026-05-04 11:20 -37.81549 144.86572 2527 ft 118 kts 336°
2026-05-04 11:20 -37.80748 144.86409 2479 ft 117 kts 337°
2026-05-04 11:20 -37.79900 144.86238 2094 ft 129 kts 341°
2026-05-04 11:22 -37.73850 144.85124 1480 ft 126 kts 347°
2026-05-04 11:22 -37.72993 144.84963 1316 ft 123 kts 347°
2026-05-04 11:23 -37.72176 144.84759 1119 ft 121 kts 349°
2026-05-04 11:23 -37.71356 144.84557 973 ft 120 kts 350°
2026-05-04 11:24 -37.67340 144.83866 378 ft 33 kts 351°
2026-05-04 11:25 -37.67128 144.83833 383 ft 29 kts 358°
2026-05-04 11:25 -37.66966 144.83860 386 ft 0 kts 17°
2026-05-04 11:25 -37.66965 144.83860 386 ft 1 kts 17°
2026-05-04 11:26 -37.66850 144.83910 387 ft 13 kts 20°
2026-05-04 11:27 -37.66634 144.84752 347 ft 4 kts 59°
2026-05-04 11:28 -37.66631 144.84759 349 ft 0 kts 57°
2026-05-04 11:28 -37.66630 144.84760 349 ft 1 kts 55°
2026-05-04 11:28 -37.66575 144.84815 334 ft 13 kts 49°
2026-05-04 11:28 -37.66537 144.84930 336 ft 15 kts 74°
2026-05-04 11:29 -37.66551 144.85054 335 ft 12 kts 122°
2026-05-04 11:29 -37.66570 144.85062 339 ft 5 kts 180°
2026-05-04 11:29 -37.66638 144.85069 337 ft 11 kts 173°
2026-05-04 11:29 -37.66679 144.85053 354 ft 3 kts 244°
2026-05-04 11:31 -37.66690 144.85005 353 ft 0 kts 259°